Change the Weather History Date:

Monday, April 29, 2013

  Actual Average Record
Temperature  
Mean Temperature 70 °F -  
Max Temperature 77 °F 65 °F 87 °F (2007)
Min Temperature 62 °F 43 °F 29 °F (1942)
Cooling Degree Days 4    
Growing Degree Days 20 (Base 50)    
Moisture  
Dew Point 27 °F    
Average Humidity 20    
Maximum Humidity 27    
Minimum Humidity 14    
Precipitation  
Precipitation 0.00 in - - ()
Sea Level Pressure  
Sea Level Pressure 29.81 in    
Wind  
Wind Speed 12 mph (NW)    
Max Wind Speed 28 mph    
Max Gust Speed 31 mph    
Visibility 10 miles    
Events      
Averages and records for this station are not official NWS values.
T = Trace of Precipitation, MM = Missing Value Source: NWS Daily Summary

Daily Weather History Graph

Daily Weather History Graph

Search for Another Location

Airport or City:

Trip Planner

Search our weather history database for the weather conditions in past years. The results will help you decide how hot, cold, wet, or windy it might be!

Date:

Astronomy

Apr. 29, 2013 Rise Set
Actual Time 6:36 AM MDT 8:30 PM MDT
Civil Twilight 6:07 AM MDT 9:00 PM MDT
Nautical Twilight 5:31 AM MDT 9:36 PM MDT
Astronomical Twilight 4:52 AM MDT 10:15 PM MDT
Moon 12:04 AM MDT (4/29) 10:01 AM MDT (4/29)
Length of Visible Light 14h 52m
Length of Day
13h 53m
Waning Gibbous, 79% of the Moon is Illuminated
Apr 29
Waning Gibbous
May 2
Last Quarter
May 9
New
May 17
First Quarter
May 24
Full

Hourly Weather History & Observations

Time (MDT) Temp. Dew Point Humidity Pressure Visibility Wind Dir Wind Speed Gust Speed Precip Events Conditions
10:35 AM 62.6 °F 28.4 °F 27% 29.97 in 10.0 mi SSE 9.2 mph - N/A   Clear
10:55 AM 62.6 °F 26.6 °F 26% 29.96 in 10.0 mi SSE 9.2 mph - N/A   Clear
11:15 AM 64.4 °F 26.6 °F 24% 29.96 in 10.0 mi SSE 8.1 mph - N/A   Clear
11:55 AM 66.2 °F 26.6 °F 23% 29.94 in 10.0 mi ESE 9.2 mph - N/A   Clear
12:15 PM 66.2 °F 28.4 °F 24% 29.93 in 10.0 mi ESE 5.8 mph - N/A   Clear
12:35 PM 68.0 °F 28.4 °F 23% 29.92 in 10.0 mi SE 10.4 mph - N/A   Clear
12:55 PM 69.8 °F 26.6 °F 20% 29.91 in 10.0 mi SE 8.1 mph - N/A   Clear
1:15 PM 69.8 °F 28.4 °F 21% 29.90 in 10.0 mi ESE 5.8 mph - N/A   Clear
1:35 PM 69.8 °F 28.4 °F 21% 29.88 in 10.0 mi East 11.5 mph - N/A   Clear
1:55 PM 69.8 °F 26.6 °F 20% 29.87 in 10.0 mi East 9.2 mph - N/A   Clear
2:15 PM 71.6 °F 26.6 °F 19% 29.86 in 10.0 mi ESE 6.9 mph - N/A   Clear
2:35 PM 71.6 °F 28.4 °F 20% 29.84 in 10.0 mi ESE 9.2 mph - N/A   Clear
2:55 PM 71.6 °F 28.4 °F 20% 29.84 in 10.0 mi ESE 9.2 mph - N/A   Clear
3:15 PM 73.4 °F 28.4 °F 19% 29.82 in 10.0 mi SE 12.7 mph - N/A   Clear
3:55 PM 73.4 °F 28.4 °F 19% 29.80 in 10.0 mi SSW 5.8 mph - N/A   Clear
4:15 PM 73.4 °F 28.4 °F 19% 29.79 in 10.0 mi SE 5.8 mph - N/A   Clear
4:35 PM 73.4 °F 28.4 °F 19% 29.78 in 10.0 mi East 8.1 mph - N/A   Clear
4:55 PM 75.2 °F 28.4 °F 18% 29.77 in 10.0 mi WNW 12.7 mph 19.6 mph N/A   Clear
5:15 PM 75.2 °F 26.6 °F 17% 29.76 in 10.0 mi WNW 18.4 mph - N/A   Clear
5:35 PM 77.0 °F 26.6 °F 16% 29.75 in 10.0 mi West 25.3 mph - N/A   Clear
5:55 PM 77.0 °F 26.6 °F 16% 29.74 in 10.0 mi WNW 23.0 mph 29.9 mph N/A   Clear
6:15 PM 77.0 °F 24.8 °F 14% 29.74 in 10.0 mi West 23.0 mph 27.6 mph N/A   Clear
6:35 PM 77.0 °F 24.8 °F 14% 29.73 in 10.0 mi WNW 27.6 mph 31.1 mph N/A   Clear
6:55 PM 75.2 °F 24.8 °F 15% 29.73 in 10.0 mi WNW 21.9 mph 29.9 mph N/A   Clear
7:15 PM 75.2 °F 24.8 °F 15% 29.73 in 10.0 mi WNW 25.3 mph 31.1 mph N/A   Clear
7:35 PM 73.4 °F 24.8 °F 16% 29.74 in 10.0 mi WNW 18.4 mph 31.1 mph N/A   Clear
7:55 PM 73.4 °F 24.8 °F 16% 29.74 in 10.0 mi NW 24.2 mph 27.6 mph N/A   Clear
8:15 PM 71.6 °F 26.6 °F 19% 29.74 in 10.0 mi WNW 16.1 mph - N/A   Clear
8:35 PM 71.6 °F 26.6 °F 19% 29.74 in 10.0 mi WNW 15.0 mph - N/A   Clear
8:55 PM 69.8 °F 26.6 °F 20% 29.74 in 10.0 mi WNW 16.1 mph - N/A   Clear
9:55 PM 68.0 °F 26.6 °F 21% 29.74 in 10.0 mi NW 13.8 mph 21.9 mph N/A   Clear
10:15 PM 66.2 °F 28.4 °F 24% 29.75 in 10.0 mi NNW 13.8 mph 19.6 mph N/A   Clear
10:35 PM 66.2 °F 28.4 °F 24% 29.75 in 10.0 mi North 20.7 mph - N/A   Clear
10:55 PM 64.4 °F 28.4 °F 26% 29.75 in 10.0 mi North 20.7 mph 26.5 mph N/A   Clear
11:15 PM 64.4 °F 28.4 °F 26% 29.76 in 10.0 mi NNW 17.3 mph 23.0 mph N/A   Clear
11:35 PM 64.4 °F 28.4 °F 26% 29.77 in 10.0 mi North 16.1 mph - N/A   Clear
11:55 PM 62.6 °F 26.6 °F 26% 29.77 in 10.0 mi NNW 15.0 mph - N/A   Clear